Weather History for Ramona, CA

Change the Weather History Date:

Tuesday, June 11, 2013

  Actual Average Record
Temperature  
Mean Temperature 68 °F 66 °F  
Max Temperature 91 °F 81 °F 103 °F (1979)
Min Temperature 45 °F 51 °F 44 °F (1978)
Degree Days  
Heating Degree Days 0 1  
Month to date heating degree days 2 17  
Since 1 June heating degree days 2 17  
Since 1 July heating degree days 2344 2541  
Cooling Degree Days 3 2  
Month to date cooling degree days 24 17  
Year to date cooling degree days 72 44  
Since 1 June cooling degree days 24 17  
Growing Degree Days 18 (Base 50)    
Moisture  
Dew Point 50 °F    
Average Humidity 54    
Maximum Humidity 93    
Minimum Humidity 14    
Precipitation  
Precipitation 0.00 in 0.01 in 0.02 in (1998)
Month to date precipitation 0.00 0.09  
Year to date precipitation 4.50 11.30  
Since 1 July precipitation 8.14 16.01  
Snow  
Snow 0.00 in - - ()
Month to date snowfall 0.0  
Year to date snowfall 0.0  
Since 1 July snowfall 0.0  
Snow Depth 0.00 in    
Sea Level Pressure  
Sea Level Pressure 29.89 in    
Wind  
Wind Speed 5 mph (WNW)    
Max Wind Speed 16 mph    
Max Gust Speed 20 mph    
Visibility 10 miles    
Events      
T = Trace of Precipitation, MM = Missing Value Source: NWS Daily Summary

Daily Weather History Graph

Daily Weather History Graph

Search for Another Location

Airport:

Trip Planner

Search our weather history database for the weather conditions in past years. The results will help you decide how hot, cold, wet, or windy it might be!

Date:

Astronomy

Jun. 11, 2013 Rise Set
Actual Time 5:38 AM PDT 7:56 PM PDT
Civil Twilight 5:09 AM PDT 8:25 PM PDT
Nautical Twilight 4:34 AM PDT 9:00 PM PDT
Astronomical Twilight 3:56 AM PDT 9:38 PM PDT
Moon 8:19 AM PDT (6/11) 10:09 PM PDT (6/11)
Length of Visible Light 15h 15m
Length of Day
14h 18m
Waxing Crescent, 9% of the Moon is Illuminated
Jun 11
Waxing Crescent
Jun 16
First Quarter
Jun 23
Full
Jun 29
Last Quarter
Jul 8
New

Hourly Weather History & Observations

Time (PDT) Temp. Heat Index Dew Point Humidity Pressure Visibility Wind Dir Wind Speed Gust Speed Precip Events Conditions
12:53 AM 54.0 °F - 48.9 °F 83% 29.90 in 10.0 mi Calm Calm - N/A   Clear
1:53 AM 53.1 °F - 48.9 °F 86% 29.89 in 10.0 mi Calm Calm - N/A   Clear
2:53 AM 52.0 °F - 48.9 °F 89% 29.88 in 10.0 mi Calm Calm - N/A   Clear
3:53 AM 50.0 °F - 46.0 °F 86% 29.88 in 10.0 mi Calm Calm - N/A   Clear
4:53 AM 50.0 °F - 46.9 °F 89% 29.88 in 10.0 mi Calm Calm - N/A   Clear
5:53 AM 48.9 °F - 46.0 °F 90% 29.89 in 10.0 mi Calm Calm - N/A   Clear
6:53 AM 55.0 °F - 48.9 °F 80% 29.90 in 10.0 mi Calm Calm - N/A   Clear
7:53 AM 66.9 °F - 46.0 °F 47% 29.90 in 10.0 mi Calm Calm - N/A   Clear
8:53 AM 77.0 °F - 39.0 °F 25% 29.90 in 10.0 mi Calm Calm - N/A   Clear
9:53 AM 82.9 °F - 39.0 °F 21% 29.88 in 10.0 mi WNW 11.5 mph - N/A   Clear
10:53 AM 87.1 °F - 32.0 °F 14% 29.88 in 10.0 mi WNW 10.4 mph - N/A   Clear
11:53 AM 88.0 °F - 42.1 °F 20% 29.89 in 10.0 mi West 11.5 mph - N/A   Clear
12:53 PM 84.9 °F 83.2 °F 53.1 °F 33% 29.90 in 10.0 mi West 11.5 mph - N/A   Clear
1:53 PM 82.0 °F 81.4 °F 55.0 °F 39% 29.90 in 10.0 mi WNW 11.5 mph - N/A   Clear
2:53 PM 82.0 °F 81.7 °F 57.0 °F 42% 29.89 in 10.0 mi West 10.4 mph - N/A   Clear
3:53 PM 80.1 °F 80.2 °F 55.9 °F 43% 29.89 in 10.0 mi WNW 12.7 mph - N/A   Clear
4:53 PM 78.1 °F - 57.0 °F 48% 29.88 in 10.0 mi WNW 11.5 mph - N/A   Clear
5:53 PM 77.0 °F - 55.9 °F 48% 29.89 in 10.0 mi WNW 9.2 mph - N/A   Clear
6:53 PM 73.0 °F - 57.0 °F 57% 29.89 in 10.0 mi WNW 8.1 mph - N/A   Clear
7:53 PM 68.0 °F - 57.0 °F 68% 29.88 in 10.0 mi WNW 8.1 mph - N/A   Clear
8:53 PM 62.1 °F - 55.9 °F 80% 29.89 in 10.0 mi West 5.8 mph - N/A   Clear
9:53 PM 60.1 °F - 55.9 °F 86% 29.91 in 10.0 mi WNW 5.8 mph - N/A   Clear
10:53 PM 57.9 °F - 55.0 °F 90% 29.91 in 10.0 mi West 5.8 mph - N/A   Clear
11:51 PM 57.2 °F - 55.4 °F 94% 29.96 in 8.0 mi West 3.5 mph - N/A   Scattered Clouds
11:53 PM 57.0 °F - 55.0 °F 93% 29.91 in 8.0 mi West 3.5 mph - N/A   Scattered Clouds